Regional Weather Roundup
Issued by NWS Albany, NY

Home | Current Version | Previous Version | Text Only | Print | Product List | Glossary On
Versions: 1 2 3 4 5 6 7 8 9 10 11 12 13 14 15 16 17 18 19 20 21 22 23 24 25 26 27 28 29 30 31 32 33 34 35 36 37 38 39 40 41 42 43 44 45 46 47 48 49 50
000
ASUS41 KALY 110710
RWRALY

NEW YORK STATE HOURLY WEATHER ROUNDUP
NATIONAL WEATHER SERVICE ALBANY NY
200 AM EST THU FEB 11 2016

NOTE: "FAIR" INDICATES FEW OR NO CLOUDS BELOW 12,000 FEET WITH NO
SIGNIFICANT WEATHER AND/OR NO OBSTRUCTIONS TO VISIBILITY.

NYZ032-033-038>043-046>054-057>066-NYZ062>081-110800-
EAST


CITY           SKY/WX    TMP DP  RH WIND       PRES   REMARKS
ALBANY         CLOUDY    26  11  52 NW7G20    29.71R WCI  18
GLENS FALLS    LGT SNOW  25  19  78 W5        29.67S WCI  19
POUGHKEEPSIE   CLOUDY    28  15  58 W15G26    29.73R WCI  16
NEWBURGH       CLOUDY    25  16  68 NW23G29   29.74  WCI  10
MONTGOMERY     CLOUDY    25   9  50 NW10G22   29.74R WCI  15
WHITE PLAINS   LGT SNOW  27  20  75 NW14G22   29.71R FOG     WCI  16
ISLIP          CLOUDY    31  17  56 W12       29.70S WCI  22
NEW YORK CITY  LGT SNOW  28  19  69 W20G26    29.76R WCI  15
CENTRAL PARK   CLOUDY    27  17  66 W13G23    29.78R WCI  16
$$

NYZ005>009-017-018-044>046-055-056-110800-
CENTRAL


CITY           SKY/WX    TMP DP  RH WIND       PRES   REMARKS
FULTON         LGT SNOW  20  13  74 MISG      29.76S
SYRACUSE       FLURRIES  17  13  84 W16G26    29.76S WCI   2
ROME           LGT SNOW  19  16  88 W13       29.75S FOG     WCI   6
ELMIRA         CLOUDY    15   5  64 W6        29.79S WCI   6
BINGHAMTON     CLOUDY    14   5  67 W10G17    29.70R WCI   1
MONTICELLO     PTCLDY    18   5  57 W15G21    29.70R WCI   3
$$

NYZ026>034-041>043-110800-
NORTH


CITY           SKY/WX    TMP DP  RH WIND       PRES   REMARKS
WATERTOWN      CLOUDY    18   8  65 W10       29.74S WCI   6
FORT DRUM      NOT AVBL
MASSENA        LGT SNOW  14   7  73 W12       29.73R WCI   0
SARANAC LAKE   LGT SNOW  15  12  88 W3        29.55S FOG
PLATTSBURGH    CLOUDY    19  16  88 W3        29.66S
$$

NYZ001>004-010>016-019>021-110800-
WEST


CITY           SKY/WX    TMP DP  RH WIND       PRES   REMARKS
NIAGARA FALLS  PTCLDY    14   6  70 W17       29.82R WCI  -3
BUFFALO        PTCLDY    13   5  70 W13       29.81S WCI  -2
DUNKIRK        CLOUDY    17   5  59 W14G26    29.85S WCI   3
JAMESTOWN      CLOUDY    10   5  79 W12G17    29.76S WCI  -4
WELLSVILLE     CLOUDY    10   3  73 W9        29.71S WCI  -3
ROCHESTER      CLEAR     15   6  67 W12       29.79F WCI   2
PENN YAN       CLEAR     16   2  54 W12G21    29.77S WCI   3
$$

             KEY
       WCI = WIND CHILL INDEX
       VSB = VISIBILITY
       HX  = HEAT INDEX
$$



USA.gov is the U.S. government's official web portal to all federal, state and local government web resources and services.